This is the latest recevied weather packets stored in our database for station/object LY3FF-10. If no packets are shown the sender has not sent any weather packets the latest 10 day(s).
| Time | Temp. | Humidity | Pressure | Rain* | Wind** | Luminosity | Snow |
|---|---|---|---|---|---|---|---|
| 1788372900 | 14.44° C | 87% | 995.1 hPa | - | - | - | - |
| 1788372070 | 14.44° C | 87% | 995.1 hPa | - | - | - | - |
| 1788371330 | 15° C | 86% | 995 hPa | - | - | - | - |
| 1788370455 | 15° C | 85% | 995 hPa | - | - | - | - |
| 1788369690 | 15° C | 84% | 994.9 hPa | - | - | - | - |
| 1788368910 | 15.56° C | 84% | 994.9 hPa | - | - | - | - |
| 1788368044 | 15.56° C | 83% | 994.8 hPa | - | - | - | - |
| 1788367200 | 16.11° C | 82% | 994.7 hPa | - | - | - | - |
| 1788366365 | 16.67° C | 81% | 994.7 hPa | - | - | - | - |
| 1788365515 | 16.67° C | 80% | 994.5 hPa | - | - | - | - |
| 1788364710 | 16.67° C | 80% | 994.6 hPa | - | - | - | - |
| 1788363826 | 16.67° C | 80% | 994.6 hPa | - | - | - | - |
| 1788363035 | 17.22° C | 78% | 994.7 hPa | - | - | - | - |
| 1788362315 | 18.33° C | 76% | 994.6 hPa | - | - | - | - |
| 1788361534 | 18.89° C | 73% | 994.2 hPa | - | - | - | - |
| 1788360735 | 20° C | 71% | 994.3 hPa | - | - | - | - |
| 1788359840 | 21.67° C | 68% | 994.3 hPa | - | - | - | - |
| 1788359060 | 21.11° C | 71% | 994.3 hPa | - | - | - | - |
| 1788358250 | 20° C | 75% | 994.3 hPa | - | - | - | - |
| 1788357455 | 18.89° C | 78% | 994.3 hPa | - | - | - | - |
| 1788356725 | 18.89° C | 78% | 994.3 hPa | - | - | - | - |
| 1788355870 | 18.33° C | 78% | 994.4 hPa | - | - | - | - |
| 1788355035 | 19.44° C | 72% | 994.5 hPa | - | - | - | - |
| 1788354195 | 20° C | 69% | 994.4 hPa | - | - | - | - |
| 1788353410 | 20.56° C | 64% | 994.5 hPa | - | - | - | - |
* Rain since midnight (hover to see other rain measurements)
** Current wind speed in m/s (hover to see current wind gust speed)